Hourly Data Report for August 14, 2009

All times are specified in Local Standard Time (LST). Add 1 hour to adjust for Daylight Saving Time where and when it is observed.

EMERSON AUT
MANITOBA

49°00'00.000" N
97°14'15.000" W
242.00 m
5020882
71560
WEX

Download Data

Hourly Data (August 2009)
Hourly Data Report for August 14, 2009
Temp Definition
°C
Dew Point Temp Definition
°C
Rel Hum Definition
%
Wind Dir Definition
10's deg

Wind Spd Definition
km/h
Visibility Definition
km
Stn Press Definition
kPa
Hmdx Definition


Wind Chill Definition


Weather Definition


TIME
00:00 21.7 19.4 87 12 9   98.09 29   LegendNANA
01:00 21.7 19.5 87 14 13   98.04 29   LegendNANA
02:00 21.0 19.5 91 14 6   98.01 28   LegendNANA
03:00 20.8 19.9 95 14 7   97.92 28   LegendNANA
04:00 20.3 19.6 96 2 7   98.03 28   LegendNANA
05:00 20.8 20.2 96 3 13   98.10 29   LegendNANA
06:00 21.8 20.4 92 8 13   98.08 30   LegendNANA
07:00 21.4 19.3 88 5 13   98.17 28   LegendNANA
08:00 20.6 18.4 87 8 4   98.30 27   LegendNANA
09:00 20.1 18.6 91 2 4   98.45 27   LegendNANA
10:00 20.3 17.5 84 9 24   97.83 26   LegendNANA
11:00 21.6 16.9 75 36 7   98.10 27   LegendNANA
12:00 23.7 17.7 69 35 11   98.11 29   LegendNANA
13:00 23.5 18.1 72 36 15   98.11 30   LegendNANA
14:00 23.0 19.3 80 1 20   98.08 30   LegendNANA
15:00 23.1 18.8 77 1 20   98.10 30   LegendNANA
16:00 23.9 19.4 76 3 17   98.12 31   LegendNANA
17:00 24.2 19.8 76 35 11   98.19 32   LegendNANA
18:00 22.4 18.8 80 36 24   98.17 29   LegendNANA
19:00 21.2 18.7 86 36 17   98.14 28   LegendNANA
20:00 20.7 18.7 88 36 15   98.21 27   LegendNANA
21:00 19.6 18.0 90 36 13   98.20     LegendNANA
22:00 18.6 17.2 92 35 17   98.21     LegendNANA
23:00 17.8 16.8 94 36 13   98.19     LegendNANA

Notes on Data Quality.

Legend

  • E = Estimated
  • M = Missing
  • NA = Not Available
  • ‡ = Partner data that is not subject to review by the National Climate Archives
Date modified: